THA105 VTCC-VTBS

Flight info

Callsign THA105
Flight time 0h 57m
Altitude 35000
Route PANTA2S PANTA Y7 BLAFF NORTA1C
Aircraft A21N/M-SDE3FGHIRWY/LB1

Departure

Time 2026-05-04 09:30
Airport Chiang Mai International Airport (VTCC)

Arrival

Time 2026-05-04 10:27
Airport Suvarnabhumi Airport (VTBS)
Time Latitude Longitude Altitude Speed Heading
2026-05-04 09:04 18.76781 98.96734 1024 ft 0 kts 90°
2026-05-04 09:19 18.76781 98.96727 1024 ft 2 kts 81°
2026-05-04 09:20 18.76780 98.96711 1025 ft 2 kts 92°
2026-05-04 09:20 18.76781 98.96696 1025 ft 2 kts 90°
2026-05-04 09:20 18.76780 98.96686 1025 ft 2 kts 90°
2026-05-04 09:20 18.76778 98.96670 1025 ft 2 kts 63°
2026-05-04 09:21 18.76769 98.96657 1025 ft 2 kts 42°
2026-05-04 09:21 18.76757 98.96648 1024 ft 2 kts 20°
2026-05-04 09:21 18.76745 98.96645 1024 ft 0 kts
2026-05-04 09:21 18.76738 98.96645 1024 ft 1 kts
2026-05-04 09:22 18.76737 98.96645 1024 ft 0 kts
2026-05-04 09:25 18.76961 98.96645 1026 ft 11 kts 358°
2026-05-04 09:25 18.77046 98.96621 1028 ft 13 kts 332°
2026-05-04 09:26 18.77113 98.96562 1030 ft 11 kts 307°
2026-05-04 09:26 18.77167 98.96516 1032 ft 9 kts 355°
2026-05-04 09:26 18.77247 98.96519 1032 ft 13 kts
2026-05-04 09:26 18.77355 98.96519 1033 ft 17 kts 360°
2026-05-04 09:27 18.77480 98.96519 1035 ft 18 kts 359°
2026-05-04 09:27 18.77618 98.96518 1038 ft 19 kts
2026-05-04 09:27 18.77759 98.96519 1039 ft 20 kts
2026-05-04 09:27 18.77908 98.96519 1040 ft 20 kts
2026-05-04 09:28 18.78045 98.96520 1042 ft 18 kts
2026-05-04 09:28 18.78161 98.96487 1046 ft 16 kts 329°
2026-05-04 09:28 18.78266 98.96421 1047 ft 18 kts 329°
2026-05-04 09:28 18.78358 98.96348 1049 ft 11 kts 296°
2026-05-04 09:29 18.78352 98.96298 1050 ft 6 kts 208°
2026-05-04 09:29 18.78326 98.96294 1050 ft 0 kts 180°
2026-05-04 09:29 18.78287 98.96294 1050 ft 26 kts 180°
2026-05-04 09:29 18.77846 98.96294 1044 ft 97 kts 180°
2026-05-04 09:30 18.76957 98.96292 1033 ft 156 kts 180°
2026-05-04 09:30 18.75718 98.96295 1138 ft 190 kts 179°
2026-05-04 09:30 18.74401 98.96291 1707 ft 192 kts 180°
2026-05-04 09:30 18.73070 98.96272 2386 ft 189 kts 180°
2026-05-04 09:31 18.71734 98.96265 2721 ft 200 kts 179°
2026-05-04 09:31 18.70280 98.96272 3026 ft 213 kts 179°
2026-05-04 09:31 18.68759 98.96295 3391 ft 224 kts 178°
2026-05-04 09:31 18.67117 98.96304 3592 ft 245 kts 180°
2026-05-04 09:32 18.65350 98.96288 3911 ft 261 kts 180°
2026-05-04 09:32 18.63511 98.96272 4345 ft 272 kts 180°
2026-05-04 09:34 18.50283 98.98428 8845 ft 293 kts 144°
2026-05-04 09:34 18.48682 98.99750 9492 ft 296 kts 146°
2026-05-04 09:34 18.46963 99.00960 10140 ft 298 kts 149°
2026-05-04 09:34 18.45197 99.02135 10602 ft 308 kts 150°
2026-05-04 09:35 18.43313 99.03355 10900 ft 325 kts 150°
2026-05-04 09:35 18.41316 99.04636 11192 ft 341 kts 150°
2026-05-04 09:35 18.39253 99.05955 11600 ft 351 kts 150°
2026-05-04 09:35 18.37158 99.07291 12108 ft 358 kts 150°
2026-05-04 09:37 18.20861 99.15325 15962 ft 382 kts 159°
2026-05-04 09:37 18.18386 99.16442 16469 ft 386 kts 159°
2026-05-04 09:38 18.15915 99.17563 16961 ft 389 kts 159°
2026-05-04 09:38 18.13403 99.18674 17451 ft 392 kts 160°
2026-05-04 09:38 18.10858 99.19762 17923 ft 395 kts 160°
2026-05-04 09:38 18.08295 99.20850 18388 ft 398 kts 160°
2026-05-04 09:39 18.05723 99.21944 18848 ft 401 kts 160°
2026-05-04 09:39 18.03125 99.23051 19294 ft 404 kts 160°
2026-05-04 09:39 18.00495 99.24175 19728 ft 407 kts 160°
2026-05-04 09:39 17.97882 99.25291 20164 ft 409 kts 160°
2026-05-04 09:40 17.95247 99.26418 20595 ft 411 kts 160°
2026-05-04 09:40 17.92569 99.27563 21011 ft 414 kts 160°
2026-05-04 09:40 17.89905 99.28700 21413 ft 416 kts 160°
2026-05-04 09:40 17.87201 99.29855 21809 ft 418 kts 160°
2026-05-04 09:41 17.84487 99.31014 22203 ft 420 kts 160°
2026-05-04 09:42 17.65167 99.39261 24638 ft 436 kts 160°
2026-05-04 09:43 17.62342 99.40462 24950 ft 438 kts 160°
2026-05-04 09:43 17.59497 99.41669 25257 ft 440 kts 160°
2026-05-04 09:43 17.56646 99.42880 25561 ft 442 kts 160°
2026-05-04 09:43 17.53793 99.44094 25849 ft 444 kts 160°
2026-05-04 09:44 17.50911 99.45319 26130 ft 446 kts 160°
2026-05-04 09:44 17.48045 99.46538 26394 ft 448 kts 160°
2026-05-04 09:44 17.45140 99.47772 26657 ft 450 kts 160°
2026-05-04 09:46 17.24509 99.56531 28362 ft 462 kts 160°
2026-05-04 09:46 17.21500 99.57806 28594 ft 464 kts 160°
2026-05-04 09:46 17.18506 99.59074 28818 ft 465 kts 160°
2026-05-04 09:47 17.15497 99.60349 29041 ft 467 kts 160°
2026-05-04 09:47 17.12480 99.61627 29320 ft 466 kts 160°
2026-05-04 09:49 16.91471 99.70523 31253 ft 465 kts 160°
2026-05-04 09:49 16.88467 99.71794 31505 ft 465 kts 160°
2026-05-04 09:49 16.85436 99.73074 31771 ft 464 kts 160°
2026-05-04 09:51 16.67514 99.80633 33282 ft 463 kts 160°
2026-05-04 09:51 16.64534 99.81891 33485 ft 463 kts 160°
2026-05-04 09:51 16.61510 99.83167 33678 ft 464 kts 160°
2026-05-04 09:51 16.58547 99.84415 33855 ft 465 kts 160°
2026-05-04 09:52 16.55538 99.85684 34046 ft 466 kts 160°
2026-05-04 09:52 16.52516 99.86959 34231 ft 467 kts 160°
2026-05-04 09:52 16.49493 99.88233 34389 ft 468 kts 160°
2026-05-04 09:52 16.46462 99.89512 34557 ft 468 kts 160°
2026-05-04 09:53 16.43451 99.90781 34732 ft 469 kts 160°
2026-05-04 09:53 16.37383 99.93338 34752 ft 470 kts 160°
2026-05-04 09:54 16.31274 99.95693 34752 ft 468 kts 164°
2026-05-04 09:54 16.25062 99.97743 34756 ft 467 kts 164°
2026-05-04 09:55 16.18832 99.99791 34751 ft 468 kts 164°
2026-05-04 09:55 16.12604 100.01842 34757 ft 468 kts 164°
2026-05-04 09:56 16.06396 100.03887 34751 ft 468 kts 164°
2026-05-04 09:56 16.00181 100.05934 34750 ft 468 kts 164°
2026-05-04 09:57 15.93963 100.07982 34755 ft 468 kts 164°
2026-05-04 09:57 15.87738 100.10030 34758 ft 468 kts 164°
2026-05-04 09:58 15.81545 100.12067 34754 ft 468 kts 164°
2026-05-04 09:58 15.75305 100.14116 34756 ft 468 kts 164°
2026-05-04 10:00 15.50441 100.22273 34633 ft 469 kts 165°
2026-05-04 10:02 15.29014 100.29528 32463 ft 464 kts 160°
2026-05-04 10:04 15.09171 100.41035 28103 ft 461 kts 151°
2026-05-04 10:04 15.06431 100.42719 27652 ft 456 kts 151°
2026-05-04 10:04 15.03729 100.44379 27181 ft 451 kts 151°
2026-05-04 10:04 15.01026 100.46037 26697 ft 447 kts 151°
2026-05-04 10:05 14.98351 100.47678 26208 ft 443 kts 151°
2026-05-04 10:05 14.95703 100.49301 25724 ft 439 kts 151°
2026-05-04 10:05 14.93118 100.50885 25258 ft 436 kts 150°
2026-05-04 10:05 14.90492 100.52494 24777 ft 432 kts 150°
2026-05-04 10:06 14.87935 100.54060 24306 ft 429 kts 150°
2026-05-04 10:06 14.85361 100.55637 23835 ft 425 kts 150°
2026-05-04 10:06 14.82811 100.57200 23360 ft 422 kts 150°
2026-05-04 10:08 14.67252 100.65340 19900 ft 413 kts 164°
2026-05-04 10:08 14.64500 100.66189 19370 ft 410 kts 164°
2026-05-04 10:08 14.61781 100.67016 18993 ft 403 kts 164°
2026-05-04 10:08 14.59115 100.67828 18594 ft 398 kts 164°
2026-05-04 10:09 14.56471 100.68638 18064 ft 396 kts 164°
2026-05-04 10:09 14.53815 100.69453 17526 ft 395 kts 164°
2026-05-04 10:09 14.51194 100.70259 17044 ft 392 kts 164°
2026-05-04 10:09 14.48580 100.71063 16777 ft 389 kts 163°
2026-05-04 10:10 14.46002 100.71832 16541 ft 388 kts 166°
2026-05-04 10:10 14.43367 100.72447 16308 ft 386 kts 169°
2026-05-04 10:10 14.40692 100.72872 16082 ft 384 kts 173°
2026-05-04 10:10 14.38037 100.73177 15837 ft 381 kts 174°
2026-05-04 10:11 14.35400 100.73466 15394 ft 378 kts 174°
2026-05-04 10:11 14.32818 100.73747 14950 ft 375 kts 174°
2026-05-04 10:11 14.30202 100.74034 14500 ft 373 kts 173°
2026-05-04 10:11 14.27613 100.74321 14053 ft 370 kts 173°
2026-05-04 10:12 14.25055 100.74606 13597 ft 366 kts 173°
2026-05-04 10:12 14.22554 100.74886 13176 ft 362 kts 173°
2026-05-04 10:12 14.20054 100.75165 12749 ft 359 kts 173°
2026-05-04 10:12 14.17576 100.75441 12340 ft 357 kts 173°
2026-05-04 10:13 14.15107 100.75716 11921 ft 357 kts 173°
2026-05-04 10:13 14.12608 100.75888 11638 ft 356 kts 181°
2026-05-04 10:13 14.10137 100.75602 11397 ft 357 kts 191°
2026-05-04 10:13 14.07725 100.75005 11165 ft 357 kts 194°
2026-05-04 10:14 14.05324 100.74352 10795 ft 356 kts 195°
2026-05-04 10:14 14.02952 100.73701 10514 ft 348 kts 194°
2026-05-04 10:16 13.88157 100.69757 8853 ft 297 kts 194°
2026-05-04 10:16 13.86147 100.69225 8484 ft 295 kts 193°
2026-05-04 10:16 13.84161 100.68700 8105 ft 293 kts 193°
2026-05-04 10:16 13.82182 100.68176 7734 ft 292 kts 193°
2026-05-04 10:17 13.80226 100.67660 7375 ft 290 kts 194°
2026-05-04 10:17 13.78278 100.67144 7008 ft 288 kts 193°
2026-05-04 10:19 13.64981 100.63629 4515 ft 273 kts 193°
2026-05-04 10:19 13.63130 100.63140 4160 ft 272 kts 193°
2026-05-04 10:19 13.61302 100.62657 3821 ft 269 kts 193°
2026-05-04 10:19 13.59490 100.62180 3574 ft 263 kts 193°
2026-05-04 10:20 13.57737 100.61716 3330 ft 257 kts 193°
2026-05-04 10:20 13.56016 100.61321 3080 ft 251 kts 183°
2026-05-04 10:20 13.54292 100.61402 2884 ft 242 kts 172°
2026-05-04 10:20 13.52642 100.61646 2645 ft 237 kts 170°
2026-05-04 10:21 13.51016 100.61914 2360 ft 235 kts 169°
2026-05-04 10:21 13.49418 100.62186 2122 ft 232 kts 169°
2026-05-04 10:21 13.47817 100.62479 1933 ft 232 kts 163°
2026-05-04 10:21 13.46428 100.63290 1911 ft 231 kts 132°
2026-05-04 10:22 13.45773 100.66378 1929 ft 236 kts 76°
2026-05-04 10:22 13.46307 100.67971 1919 ft 227 kts 70°
2026-05-04 10:22 13.46907 100.69416 1905 ft 219 kts 59°
2026-05-04 10:23 13.48020 100.70470 1913 ft 223 kts 29°
2026-05-04 10:23 13.49481 100.71023 1932 ft 224 kts 17°
2026-05-04 10:25 13.58338 100.73251 1438 ft 159 kts 18°
2026-05-04 10:25 13.59414 100.73534 1226 ft 158 kts 17°
2026-05-04 10:25 13.60471 100.73814 1020 ft 156 kts 17°
2026-05-04 10:25 13.61531 100.74094 829 ft 155 kts 16°
2026-05-04 10:26 13.62579 100.74369 629 ft 154 kts 17°
2026-05-04 10:26 13.63624 100.74642 440 ft 152 kts 15°
2026-05-04 10:26 13.64637 100.74911 239 ft 150 kts 16°
2026-05-04 10:26 13.65660 100.75182 61 ft 153 kts 18°
2026-05-04 10:27 13.66669 100.75446 9 ft 139 kts 15°
2026-05-04 10:27 13.67474 100.75658 8 ft 94 kts 15°
2026-05-04 10:27 13.67914 100.75764 8 ft 33 kts 353°
2026-05-04 10:27 13.68061 100.75716 8 ft 15 kts 337°
2026-05-04 10:28 13.68153 100.75667 8 ft 13 kts 339°
2026-05-04 10:28 13.68232 100.75676 8 ft 11 kts 17°
2026-05-04 10:28 13.68307 100.75698 8 ft 11 kts 16°
2026-05-04 10:28 13.68393 100.75722 8 ft 13 kts 14°
2026-05-04 10:29 13.68490 100.75745 8 ft 15 kts 13°
2026-05-04 10:29 13.68600 100.75773 8 ft 17 kts 15°
2026-05-04 10:29 13.68721 100.75805 8 ft 18 kts 14°
2026-05-04 10:29 13.68852 100.75840 8 ft 19 kts 14°
2026-05-04 10:30 13.68987 100.75875 8 ft 19 kts 15°
2026-05-04 10:30 13.69093 100.75884 8 ft 14 kts 323°
2026-05-04 10:30 13.69127 100.75789 8 ft 14 kts 283°
2026-05-04 10:30 13.69153 100.75688 8 ft 14 kts 284°
2026-05-04 10:31 13.69158 100.75642 8 ft 4 kts 238°
2026-05-04 10:31 13.69122 100.75627 8 ft 6 kts 191°